EW7168 Weather Reports


Display with metric or nautical units.
time (UTC)temp
F
wind
direction
speed
MPH
gust
MPH
rain 1hr
in
rain 24hr
in
rain mn
in
humidity
%
barometer
mb
20240227201603 28 329 1.0 6.0 0.00 0.00 0.00 78 1003.3
20240227200058 27 118 3.0 6.0 0.00 0.00 0.00 79 1003.4
20240227194603 27 0 1.0 4.0 0.00 0.00 0.00 81 1004.2
20240227193059 26 113 2.0 6.0 0.00 0.00 0.00 81 1004.1
20240227191601 26 0 1.0 4.0 0.00 0.00 0.00 81 1004.8
20240227190057 26 89 2.0 7.0 0.00 0.00 0.00 81 1004.2
20240227184551 26 71 1.0 5.0 0.00 0.00 0.00 82 1004.1
20240227183057 26 82 3.0 6.0 0.00 0.00 0.00 82 1003.8
20240227181554 26 79 2.0 5.0 0.00 0.00 0.00 85 1003.9
20240227180052 26 12 3.0 7.0 0.00 0.00 0.00 84 1003.7
20240227174552 26 46 3.0 11.0 0.00 0.00 0.00 85 1003.8
20240227173108 25 65 4.0 11.0 0.00 0.00 0.00 86 1003.6
20240227171554 25 74 3.0 9.0 0.00 0.00 0.00 87 1003.3
20240227170054 25 55 4.0 14.0 0.00 0.00 0.00 88 1002.7
20240227164558 25 53 3.0 9.0 0.00 0.00 0.00 88 1002.2
20240227163111 25 92 6.0 14.0 0.00 0.00 0.00 87 1001.8
20240227161556 26 22 5.0 14.0 0.00 0.00 0.00 87 1002.7
20240227160053 28 9 6.0 11.0 0.00 0.00 0.00 86 1002.0
20240227154609 29 25 3.0 17.0 0.00 0.00 0.00 83 1001.1
20240227153056 30 13 6.0 15.0 0.00 0.00 0.00 78 1001.1
20240227151557 30 55 8.0 19.0 0.00 0.00 0.00 78 999.5
20240227150100 31 65 11.0 23.0 0.00 0.00 0.00 76 999.1
20240227144550 33 50 15.0 29.0 0.00 0.00 0.00 75 997.2
20240227143112 42 87 10.0 19.0 0.00 0.00 0.00 54 996.4
20240227141608 44 215 2.0 6.0 0.00 0.00 0.00 50 995.1
20240227140108 43 194 2.0 4.0 0.00 0.00 0.00 51 995.0
20240227134601 43 182 1.0 3.0 0.00 0.00 0.00 52 994.8
20240227133106 44 189 2.0 4.0 0.00 0.00 0.00 52 995.0
20240227131604 44 204 1.0 5.0 0.00 0.00 0.00 50 995.0
20240227130057 44 0 0.0 5.0 0.00 0.00 0.00 48 994.8
20240227124615 45 200 2.0 8.0 0.00 0.00 0.00 48 994.8
20240227123104 45 221 3.0 7.0 0.00 0.00 0.00 48 994.6
20240227121625 46 222 6.0 15.0 0.00 0.00 0.00 47 994.7
20240227120118 45 202 7.0 12.0 0.00 0.00 0.00 48 994.5
20240227114628 41 205 0.0 3.0 0.00 0.00 0.00 53 994.7
20240227113103 43 0 0.0 1.0 0.00 0.00 0.00 50 994.7
20240227111600 43 225 1.0 4.0 0.00 0.00 0.00 50 994.9
20240227110100 41 227 1.0 3.0 0.00 0.00 0.00 52 995.0
20240227104611 40 0 0.0 0.0 0.00 0.00 0.00 53 995.2
20240227103109 42 201 0.0 1.0 0.00 0.00 0.00 49 995.5
20240227101554 43 268 1.0 6.0 0.00 0.00 0.00 49 995.4
20240227100106 41 259 1.0 4.0 0.00 0.00 0.00 53 995.7
20240227094608 38 205 2.0 8.0 0.00 0.00 0.00 56 995.8
20240227093110 37 259 2.0 6.0 0.00 0.00 0.00 57 996.2
20240227091600 34 0 0.0 6.0 0.00 0.00 0.00 60 996.3
20240227090103 34 201 0.0 4.0 0.00 0.00 0.00 61 996.5
20240227084606 34 220 0.0 3.0 0.00 0.00 0.00 60 996.9
20240227083059 33 0 0.0 6.0 0.00 0.00 0.00 60 997.1
20240227081556 34 0 0.0 0.0 0.00 0.00 0.00 59 997.3
20240227080055 34 0 0.0 0.0 0.00 0.00 0.00 59 997.5
20240227074605 34 0 0.0 0.0 0.00 0.00 0.00 58 997.7
20240227073057 35 0 0.0 2.0 0.00 0.00 0.00 55 998.1
20240227071603 35 0 0.0 0.0 0.00 0.00 0.00 54 998.5
20240227070054 36 0 0.0 0.0 0.00 0.00 0.00 53 998.7
20240227064600 37 0 0.0 0.0 0.00 0.00 0.00 51 998.9
20240227063053 38 0 0.0 0.0 0.00 0.00 0.00 50 999.2
20240227061559 39 0 0.0 0.0 0.00 0.00 0.00 48 999.5
20240227060055 40 0 0.0 0.0 0.00 0.00 0.00 47 999.8
20240227054553 42 0 0.0 1.0 0.00 0.00 0.00 44 999.9
20240227053053 43 0 0.0 2.0 0.00 0.00 0.00 41 1000.1
20240227051557 44 210 2.0 4.0 0.00 0.00 0.00 40 1000.4
20240227050056 44 224 1.0 3.0 0.00 0.00 0.00 40 1000.4
20240227044600 45 235 1.0 3.0 0.00 0.00 0.00 39 1000.5
20240227043057 46 215 1.0 3.0 0.00 0.00 0.00 37 1000.9
20240227041559 47 237 1.0 3.0 0.00 0.00 0.00 35 1001.0
20240227040058 49 244 1.0 6.0 0.00 0.00 0.00 34 1001.1
20240227034600 50 234 2.0 8.0 0.00 0.00 0.00 32 1001.1
20240227033108 51 232 5.0 14.0 0.00 0.00 0.00 31 1001.2
20240227031557 52 246 5.0 16.0 0.00 0.00 0.00 29 1001.1
20240227030054 52 215 6.0 18.0 0.00 0.00 0.00 28 1001.0
20240227024558 53 214 4.0 11.0 0.00 0.00 0.00 26 1001.0
20240227023104 54 229 6.0 16.0 0.00 0.00 0.00 25 1001.0
20240227021605 54 194 6.0 10.0 0.00 0.00 0.00 24 1000.9
20240227020100 54 221 4.0 8.0 0.00 0.00 0.00 23 1001.0
20240227014555 55 207 3.0 6.0 0.00 0.00 0.00 20 1000.9
20240227013128 56 232 4.0 10.0 0.00 0.00 0.00 17 1000.9
20240227011551 57 223 6.0 17.0 0.00 0.00 0.00 16 1000.8
20240227010105 57 259 4.0 19.0 0.00 0.00 0.00 16 1000.9
20240227004553 57 271 6.0 11.0 0.00 0.00 0.00 17 1000.7
20240227003055 58 286 5.0 16.0 0.00 0.00 0.00 16 1000.7
20240227001558 59 217 5.0 15.0 0.00 0.00 0.00 17 1000.8
20240227000059 60 0 1.0 7.0 0.00 0.00 0.00 19 1000.7
20240226234559 60 345 2.0 9.0 0.00 0.00 0.00 19 1000.7
20240226233053 61 309 4.0 10.0 0.00 0.00 0.00 18 1000.8
20240226231606 61 273 6.0 12.0 0.00 0.00 0.00 18 1000.9
20240226230054 60 285 3.0 14.0 0.00 0.00 0.00 18 1001.0
20240226224608 61 307 5.0 12.0 0.00 0.00 0.00 18 1001.1
20240226223106 61 279 7.0 15.0 0.00 0.00 0.00 18 1001.3
20240226221600 62 284 6.0 14.0 0.00 0.00 0.00 18 1001.4
20240226220101 62 262 5.0 17.0 0.00 0.00 0.00 18 1001.5
20240226214608 62 320 5.0 14.0 0.00 0.00 0.00 18 1001.7
20240226213104 61 263 4.0 19.0 0.00 0.00 0.00 19 1001.7
20240226211601 62 15 7.0 16.0 0.00 0.00 0.00 18 1001.8
20240226210100 62 288 7.0 14.0 0.00 0.00 0.00 16 1002.0
20240226204605 62 265 7.0 21.0 0.00 0.00 0.00 15 1002.3
20240226203109 62 228 10.0 21.0 0.00 0.00 0.00 15 1002.5